Mount Pleasant, IA

3:14 AM CDT on April 30, 2017 (GMT -0500)
Mount Pleasant Municipal

Weather History for KMPZ - November, 2013

Change the Weather History Date:

Sunday, November 10, 2013

  Actual Average Record
Temperature  
Mean Temperature 40 °F -  
Max Temperature 49 °F 49 °F 75 °F (1949)
Min Temperature 30 °F 31 °F 15 °F (1957)
Degree Days  
Heating Degree Days 26    
Moisture  
Dew Point 28 °F    
Average Humidity 61    
Maximum Humidity 80    
Minimum Humidity 41    
Precipitation  
Precipitation 0.00 in - - ()
Sea Level Pressure  
Sea Level Pressure 30.33 in    
Wind  
Wind Speed 7 mph (WSW)    
Max Wind Speed 13 mph    
Max Gust Speed 20 mph    
Visibility 10 miles    
Events      
Averages and records for this station are not official NWS values.
T = Trace of Precipitation, MM = Missing Value Source: NWS Daily Summary

Daily Weather History Graph

Daily Weather History Graph

Search for Another Location

Airport or City:

Trip Planner

Search our weather history database for the weather conditions in past years. The results will help you decide how hot, cold, wet, or windy it might be!

Date:

Astronomy

Nov. 10, 2013 Rise Set
Actual Time 6:47 AM CST 4:51 PM CST
Civil Twilight 6:18 AM CST 5:20 PM CST
Nautical Twilight 5:45 AM CST 5:53 PM CST
Astronomical Twilight 5:13 AM CST 6:26 PM CST
Moon 1:00 PM CST (11/10) No Moon Set
Length of Visible Light 11h 02m
Length of Day
10h 03m
First Quarter, 56% of the Moon is Illuminated
Nov 10
First Quarter
Nov 17
Full
Nov 25
Last Quarter
Dec 2
New
Dec 9
First Quarter

Hourly Weather History & Observations

Time (CST) Temp. Windchill Dew Point Humidity Pressure Visibility Wind Dir Wind Speed Gust Speed Precip Events Conditions
12:15 AM 42.4 °F 37.0 °F 30.9 °F 64% 30.26 in 10.0 mi NW 9.2 mph - N/A   Clear
12:35 AM 41.9 °F 36.3 °F 30.7 °F 65% 30.27 in 10.0 mi NW 9.2 mph - N/A   Clear
12:55 AM 41.2 °F 35.0 °F 30.0 °F 65% 30.27 in 10.0 mi WNW 10.4 mph - N/A   Clear
1:15 AM 41.0 °F 34.7 °F 29.3 °F 63% 30.28 in 10.0 mi WNW 10.4 mph - N/A   Clear
1:35 AM 40.1 °F 33.6 °F 29.1 °F 65% 30.28 in 10.0 mi NW 10.4 mph - N/A   Clear
1:55 AM 39.6 °F 33.0 °F 28.4 °F 64% 30.29 in 10.0 mi NW 10.4 mph 17.3 mph N/A   Clear
2:15 AM 39.4 °F 32.7 °F 28.4 °F 65% 30.30 in 10.0 mi NNW 10.4 mph 19.6 mph N/A   Clear
2:35 AM 38.5 °F 32.7 °F 28.2 °F 67% 30.30 in 10.0 mi NW 8.1 mph - N/A   Clear
2:55 AM 38.1 °F 30.2 °F 27.5 °F 66% 30.31 in 10.0 mi NW 12.7 mph - N/A   Clear
3:15 AM 37.4 °F 29.8 °F 27.5 °F 67% 30.31 in 10.0 mi NW 11.5 mph 18.4 mph N/A   Clear
3:35 AM 36.5 °F 30.3 °F 27.5 °F 70% 30.32 in 10.0 mi NW 8.1 mph - N/A   Clear
3:55 AM 35.8 °F 28.3 °F 27.5 °F 72% 30.32 in 10.0 mi NW 10.4 mph - N/A   Clear
4:15 AM 35.2 °F 28.8 °F 26.8 °F 71% 30.33 in 10.0 mi NW 8.1 mph - N/A   Clear
4:35 AM 34.7 °F 28.1 °F 26.4 °F 72% 30.34 in 10.0 mi NW 8.1 mph - N/A   Clear
4:55 AM 34.3 °F 27.7 °F 26.2 °F 72% 30.35 in 10.0 mi NW 8.1 mph - N/A   Clear
5:15 AM 33.8 °F 28.6 °F 26.1 °F 73% 30.35 in 10.0 mi NW 5.8 mph - N/A   Clear
5:35 AM 33.1 °F 26.1 °F 25.9 °F 75% 30.36 in 10.0 mi NW 8.1 mph - N/A   Clear
5:55 AM 32.9 °F 27.5 °F 25.7 °F 75% 30.37 in 10.0 mi NW 5.8 mph - N/A   Clear
6:15 AM 32.2 °F 25.8 °F 25.7 °F 77% 30.38 in 10.0 mi WNW 6.9 mph - N/A   Clear
6:35 AM 32.0 °F 27.5 °F 25.7 °F 78% 30.38 in 10.0 mi WNW 4.6 mph - N/A   Clear
6:55 AM 30.7 °F 24.9 °F 24.8 °F 79% 30.39 in 10.0 mi West 5.8 mph - N/A   Clear
7:15 AM 31.6 °F 26.0 °F 25.7 °F 79% 30.40 in 10.0 mi West 5.8 mph - N/A   Clear
7:35 AM 32.0 °F 26.4 °F 26.6 °F 80% 30.41 in 10.0 mi WSW 5.8 mph - N/A   Clear
7:55 AM 33.1 °F 27.7 °F 26.6 °F 77% 30.42 in 10.0 mi West 5.8 mph - N/A   Clear
8:15 AM 34.0 °F 28.8 °F 26.8 °F 75% 30.43 in 10.0 mi WSW 5.8 mph - N/A   Clear
8:35 AM 35.1 °F 31.0 °F 27.0 °F 72% 30.43 in 10.0 mi West 4.6 mph - N/A   Clear
8:55 AM 36.1 °F 32.3 °F 27.1 °F 70% 30.43 in 10.0 mi West 4.6 mph - N/A   Clear
9:15 AM 37.2 °F 32.6 °F 27.1 °F 67% 30.44 in 10.0 mi WNW 5.8 mph - N/A   Clear
9:35 AM 38.5 °F 35.0 °F 27.7 °F 65% 30.44 in 10.0 mi WNW 4.6 mph - N/A   Clear
9:55 AM 39.2 °F 35.9 °F 27.5 °F 63% 30.44 in 10.0 mi WNW 4.6 mph - N/A   Clear
10:15 AM 40.1 °F - 27.7 °F 61% 30.43 in 10.0 mi Calm Calm - N/A   Clear
10:35 AM 41.0 °F - 27.7 °F 59% 30.43 in 10.0 mi Calm Calm - N/A   Clear
10:55 AM 41.5 °F 39.6 °F 27.7 °F 58% 30.43 in 10.0 mi ENE 3.5 mph - N/A   Clear
11:15 AM 42.3 °F - 28.0 °F 57% 30.42 in 10.0 mi Calm Calm - N/A   Clear
11:35 AM 43.0 °F - 27.7 °F 55% 30.41 in 10.0 mi Calm Calm - N/A   Clear
11:55 AM 44.8 °F - 27.7 °F 51% 30.40 in 10.0 mi Calm Calm - N/A   Clear
12:15 PM 44.6 °F - 27.3 °F 51% 30.39 in 10.0 mi Calm Calm - N/A   Clear
12:35 PM 45.9 °F - 27.5 °F 49% 30.38 in 10.0 mi Calm Calm - N/A   Clear
12:55 PM 47.3 °F - 27.1 °F 46% 30.37 in 10.0 mi WSW 4.6 mph - N/A   Clear
1:15 PM 47.8 °F - 27.1 °F 45% 30.36 in 10.0 mi WSW 5.8 mph - N/A   Clear
1:35 PM 48.6 °F - 26.4 °F 42% 30.35 in 10.0 mi WSW 4.6 mph - N/A   Clear
1:55 PM 48.2 °F - 25.5 °F 41% 30.34 in 10.0 mi Calm Calm - N/A   Clear
2:15 PM 47.7 °F - 26.8 °F 44% 30.33 in 10.0 mi SSE 4.6 mph - N/A   Mostly Cloudy
2:35 PM 47.8 °F - 27.3 °F 45% 30.33 in 10.0 mi South 6.9 mph - N/A   Overcast
2:55 PM 48.7 °F - 27.3 °F 43% 30.33 in 10.0 mi SSW 9.2 mph - N/A   Overcast
3:15 PM 49.5 °F - 27.3 °F 42% 30.32 in 10.0 mi SW 9.2 mph - N/A   Scattered Clouds
3:35 PM 49.6 °F - 27.1 °F 42% 30.32 in 10.0 mi SSW 8.1 mph - N/A   Clear
3:55 PM 49.3 °F - 27.7 °F 43% 30.32 in 10.0 mi SW 9.2 mph - N/A   Clear
4:15 PM 48.2 °F - 27.7 °F 45% 30.32 in 10.0 mi SSW 6.9 mph - N/A   Clear
4:35 PM 45.9 °F 42.9 °F 26.8 °F 47% 30.31 in 10.0 mi SSW 5.8 mph - N/A   Clear
4:55 PM 44.1 °F 40.8 °F 26.6 °F 50% 30.31 in 10.0 mi South 5.8 mph - N/A   Clear
5:15 PM 42.8 °F 39.3 °F 26.6 °F 53% 30.30 in 10.0 mi South 5.8 mph - N/A   Clear
5:35 PM 42.3 °F 38.6 °F 27.1 °F 55% 30.30 in 10.0 mi South 5.8 mph - N/A   Scattered Clouds
5:55 PM 42.3 °F 38.6 °F 27.3 °F 56% 30.30 in 10.0 mi South 5.8 mph - N/A   Scattered Clouds
6:15 PM 40.6 °F 37.5 °F 27.5 °F 59% 30.30 in 10.0 mi South 4.6 mph - N/A   Scattered Clouds
6:35 PM 41.2 °F 37.3 °F 27.3 °F 58% 30.30 in 10.0 mi South 5.8 mph - N/A   Clear
6:55 PM 39.2 °F 35.0 °F 27.3 °F 62% 30.29 in 7.0 mi South 5.8 mph - N/A   Clear
7:15 PM 38.5 °F 34.1 °F 27.0 °F 63% 30.28 in 10.0 mi SSE 5.8 mph - N/A   Clear
7:35 PM 37.4 °F 32.8 °F 27.5 °F 67% 30.28 in 10.0 mi South 5.8 mph - N/A   Scattered Clouds
7:55 PM 36.7 °F 31.2 °F 28.2 °F 71% 30.28 in 10.0 mi SSW 6.9 mph - N/A   Mostly Cloudy
8:15 PM 37.6 °F 31.6 °F 29.3 °F 72% 30.27 in 10.0 mi South 8.1 mph - N/A   Scattered Clouds
8:35 PM 38.5 °F 32.7 °F 29.3 °F 70% 30.26 in 10.0 mi South 8.1 mph - N/A   Scattered Clouds
8:55 PM 40.3 °F 34.9 °F 31.3 °F 70% 30.26 in 10.0 mi South 8.1 mph - N/A   Mostly Cloudy
9:15 PM 41.4 °F 35.7 °F 30.9 °F 66% 30.25 in 10.0 mi South 9.2 mph - N/A   Overcast
9:35 PM 41.9 °F 36.9 °F 31.1 °F 66% 30.25 in 10.0 mi South 8.1 mph - N/A   Overcast
9:55 PM 42.8 °F 37.5 °F 31.3 °F 64% 30.24 in 10.0 mi South 9.2 mph - N/A   Overcast
10:15 PM 43.7 °F 37.7 °F 31.3 °F 62% 30.23 in 10.0 mi South 11.5 mph - N/A   Overcast
10:35 PM 44.2 °F 38.4 °F 30.9 °F 60% 30.21 in 10.0 mi South 11.5 mph - N/A   Overcast
10:55 PM 44.8 °F 39.4 °F 30.6 °F 57% 30.21 in 10.0 mi South 10.4 mph - N/A   Overcast
11:15 PM 45.5 °F 40.3 °F 30.0 °F 55% 30.20 in 10.0 mi South 10.4 mph - N/A   Overcast
11:35 PM 46.0 °F 41.9 °F 30.2 °F 54% 30.21 in 10.0 mi SSW 8.1 mph - N/A   Overcast
11:55 PM 46.4 °F 41.9 °F 30.4 °F 54% 30.21 in 10.0 mi SW 9.2 mph - N/A   Overcast